Regional Weather Roundup
Issued by NWS Newport/Morehead, NC

Home | Current Version | Previous Version | Text Only | Print | Product List | Glossary On
Versions: 1 2 3 4 5 6 7 8 9 10 11 12 13 14 15 16 17 18 19 20 21 22 23 24 25 26 27 28 29 30 31 32 33 34 35 36 37 38 39 40 41 42 43 44 45 46 47 48 49 50
000
ASUS42 KMHX 260713
RWRMHX
WEATHER ROUNDUP FOR EASTERN NORTH CAROLINA
NATIONAL WEATHER SERVICE NEWPORT/MOREHEAD CITY NC
300 AM EDT MON JUN 26 2017

NOTE: "FAIR" INDICATES FEW OR NO CLOUDS BELOW 12,000 FEET
WITH NO SIGNIFICANT WEATHER AND/OR OBSTRUCTIONS TO VISIBILITY

NCZ015>017-031-032-045>047-102-103-260800-
NORTH COAST

CITY           SKY/WX    TMP DP  RH WIND       PRES   REMARKS
EDENTON        CLEAR     71  63  78 CALM      30.06S
ELIZABETH CITY CLEAR     68  63  84 W5        30.04S
KITTY HAWK     SUNNY     76  61  61 NW3       30.03S
MANTEO         PTCLDY    76  61  59 N5        30.04F

$$

NCZ045>047-081-094-103-104-260800-
CENTRAL COAST

CITY           SKY/WX    TMP DP  RH WIND       PRES   REMARKS
FRISCO         CLOUDY    79  66  64 N7        30.04S

$$

NCZ095-097-098-100-101-260800-
SOUTHERN COAST

CITY           SKY/WX    TMP DP  RH WIND       PRES   REMARKS
BEAUFORT       PTCLDY    77  72  84 N5        30.06R
CEDAR ISLAND   NOT AVBL
JACKSONVILLE   PTCLDY    73  73 100 CALM      30.06S
PINEY ISLAND   CLOUDY   N/A N/A N/A N7        30.05S
WILMINGTON     CLOUDY    73  71  93 NW3       30.06F


$$

NCZ011>013-027>030-043-044-078>080-089-090>093-098-260800-
COASTAL PLAIN

CITY           SKY/WX    TMP DP  RH WIND       PRES   REMARKS
AHOSKIE          N/A     66  62  86 CALM      30.06F
CLINTON        PTCLDY    71  71 100 CALM      30.09S
ELIZABETHTOWN  NOT AVBL
GOLDSBORO      PTCLDY    70  70  98 CALM      30.06S
GREENVILLE     CLEAR     70  64  83 CALM      30.08S
HAVELOCK       CLOUDY    73  68  84 CALM      30.07R
KENANSVILLE    CLOUDY    70  68  94 CALM      30.09R
KINSTON        PTCLDY    68  66  94 CALM      30.08S
NEW BERN       CLOUDY    73  68  84 NW5       30.08R
RICHLANDS      PTCLDY    71  70  96 CALM      30.07
ROCKY MOUNT    CLEAR     68  63  84 NW5       30.08S
WASHINGTON     CLEAR    N/A N/A N/A CALM      30.07S
WHITEVILLE     MOCLDY    73  72  96 CALM      30.07S

$$

AMZ130-135-150-152-154-156-158-170-250-252-270-ANZ085-086-088-633-658-670-260800-
MARINE OBSERVATIONS

STATION/POSITION TIME  TEMP    WIND        PRES    WAVE   SWELL
                       AIR SEA DIR/SP/G            HT/PER HT/PER
                 (UTC) (F)     (DEG/KT/KT) (MB)    (FT/S) (FT/S)
CHESAPEAKE LIGHT NOT AVBL
64 E VA BEACH    0650   73 74  230/  4/  4 1016.7    2/ 8   2/ 8
DUCK             0636          320/ 12/ 14 1016.7
2 E DUCK         NOT AVBL
OREGON INLET     0642          300/  9/ 13 1016.9
13E OREGON INLT  0648      75                N/A     2/ 6   2/ 6
HATTERAS CG      0648          340/ 11/ 13 1017.0
DIAMOND BUOY     0650   78 80  280/ 12/ 14 1017.0    2/ 9   2/ 9
CAPE LOOKOUT     0700   79     340/  6/  8 1017.4
BEAUFORT LAB     0648          340/  4/  5 1017.2
30 SE NEW RVR IN 0608   78 80  250/  4/  8 1018.1
30 SE NEW RVR IN 0643      80                N/A     3/ 6
27 SE WRIGHTSVLE 0608   77 80  230/  4/  6 1017.0
5 SE WRIGHTSVLE  0608   76 80  320/  6/ 12 1017.8
225 S CAPE HAT   0650   80 80  210/ 12/ 14 1019.2    3/ 5   2/ 6
41 SE CHARLESTON 0650   80 80  260/  6/  8 1017.5    3/ 4   3/ 4

$$



USA.gov is the U.S. government's official web portal to all federal, state and local government web resources and services.